Time,TemperatureF,DewpointF,PressureIn,WindDirection,WindDirectionDegrees,WindSpeedMPH,WindSpeedGustMPH,Humidity,HourlyPrecipIn,Conditions,Clouds,dailyrainin,SoftwareType,DateUTC
2013-03-07 00:50:00,32.3,22.1,29.41,ESE,121,0.0,0.0,65,0.00,,,-99.99,HOBO +U30 +Weather +,2013-03-07 05:50:00,
2013-03-07 00:55:00,32.0,22.0,29.41,South,181,0.0,0.0,66,0.00,,,-99.99,HOBO +U30 +Weather +,2013-03-07 05:55:00,
2013-03-07 01:00:00,32.1,22.0,29.42,SW,216,0.0,0.0,66,0.00,,,-99.99,HOBO +U30 +Weather +,2013-03-07 06:00:00,
2013-03-07 01:05:00,31.9,22.0,29.42,SW,222,0.0,0.0,66,0.00,,,-99.99,HOBO +U30 +Weather +,2013-03-07 06:05:00,
2013-03-07 01:10:00,31.8,22.2,29.42,SW,219,0.0,0.0,67,0.00,,,-99.99,HOBO +U30 +Weather +,2013-03-07 06:10:00,
2013-03-07 01:15:00,31.8,22.2,29.42,ENE,76,0.0,0.0,67,0.00,,,-99.99,HOBO +U30 +Weather +,2013-03-07 06:15:00,
2013-03-07 01:20:00,31.9,22.2,29.42,SSE,149,0.0,0.0,67,0.00,,,-99.99,HOBO +U30 +Weather +,2013-03-07 06:20:00,
2013-03-07 01:25:00,32.0,22.2,29.42,SW,222,0.0,0.0,66,0.00,,,-99.99,HOBO +U30 +Weather +,2013-03-07 06:25:00,
2013-03-07 01:30:00,31.8,22.2,29.42,NW,316,0.0,0.0,67,0.00,,,-99.99,HOBO +U30 +Weather +,2013-03-07 06:30:00,
2013-03-07 01:35:00,31.8,22.3,29.42,NNE,25,0.0,0.0,67,0.00,,,-99.99,HOBO +U30 +Weather +,2013-03-07 06:35:00,
2013-03-07 01:40:00,31.8,22.3,29.43,NE,42,0.0,0.0,67,0.00,,,-99.99,HOBO +U30 +Weather +,2013-03-07 06:40:00,
2013-03-07 01:45:00,31.8,21.9,29.42,NE,44,0.0,0.0,66,0.00,,,-99.99,HOBO +U30 +Weather +,2013-03-07 06:45:00,
2013-03-07 01:50:00,31.9,22.3,29.42,NE,56,0.0,0.0,67,0.00,,,-99.99,HOBO +U30 +Weather +,2013-03-07 06:50:00,
2013-03-07 01:55:00,31.7,22.1,29.42,NNE,22,0.0,0.0,67,0.00,,,-99.99,HOBO +U30 +Weather +,2013-03-07 06:55:00,
2013-03-07 02:00:00,31.7,22.0,29.42,NNW,344,0.0,0.0,66,0.00,,,-99.99,HOBO +U30 +Weather +,2013-03-07 07:00:00,
2013-03-07 02:15:00,31.8,22.3,29.41,ESE,122,0.0,0.0,67,0.00,,,-99.99,HOBO +U30 +Weather +,2013-03-07 07:15:00,
2013-03-07 02:30:00,31.5,22.2,29.41,SE,135,0.0,0.0,68,0.00,,,-99.99,HOBO +U30 +Weather +,2013-03-07 07:30:00,
2013-03-07 02:35:00,31.4,22.3,29.41,South,173,0.0,0.0,68,0.00,,,-99.99,HOBO +U30 +Weather +,2013-03-07 07:35:00,
2013-03-07 02:40:00,31.6,22.2,29.41,NW,316,0.0,0.0,67,0.00,,,-99.99,HOBO +U30 +Weather +,2013-03-07 07:40:00,
2013-03-07 02:45:00,31.4,22.3,29.40,WNW,302,0.0,0.0,68,0.00,,,-99.99,HOBO +U30 +Weather +,2013-03-07 07:45:00,
2013-03-07 02:50:00,31.6,22.4,29.40,NNW,345,0.0,0.0,68,0.00,,,-99.99,HOBO +U30 +Weather +,2013-03-07 07:50:00,
2013-03-07 02:55:00,31.6,22.1,29.40,ENE,67,0.0,0.0,67,0.00,,,-99.99,HOBO +U30 +Weather +,2013-03-07 07:55:00,
2013-03-07 03:00:00,31.5,22.1,29.40,SW,216,0.0,0.0,67,0.00,,,-99.99,HOBO +U30 +Weather +,2013-03-07 08:00:00,
2013-03-07 03:05:00,31.4,22.2,29.40,WNW,284,0.0,0.0,68,0.00,,,-99.99,HOBO +U30 +Weather +,2013-03-07 08:05:00,
2013-03-07 03:10:00,31.3,22.1,29.40,NW,313,0.0,0.0,68,0.00,,,-99.99,HOBO +U30 +Weather +,2013-03-07 08:10:00,
2013-03-07 03:15:00,31.5,22.2,29.40,NW,307,0.0,0.0,68,0.00,,,-99.99,HOBO +U30 +Weather +,2013-03-07 08:15:00,
2013-03-07 03:20:00,31.5,22.0,29.40,West,270,0.0,0.0,67,0.00,,,-99.99,HOBO +U30 +Weather +,2013-03-07 08:20:00,
2013-03-07 03:25:00,31.4,22.2,29.40,NW,312,0.0,0.0,68,0.00,,,-99.99,HOBO +U30 +Weather +,2013-03-07 08:25:00,
2013-03-07 03:35:00,31.4,22.0,29.40,North,354,0.0,0.0,67,0.00,,,-99.99,HOBO +U30 +Weather +,2013-03-07 08:35:00,
2013-03-07 03:40:00,31.3,22.0,29.40,North,0,0.0,0.0,68,0.00,,,-99.99,HOBO +U30 +Weather +,2013-03-07 08:40:00,
2013-03-07 03:45:00,31.3,22.1,29.40,North,1,0.0,0.0,68,0.00,,,-99.99,HOBO +U30 +Weather +,2013-03-07 08:45:00,
2013-03-07 03:50:00,31.3,22.0,29.40,SW,234,0.0,0.0,68,0.00,,,-99.99,HOBO +U30 +Weather +,2013-03-07 08:50:00,
2013-03-07 03:55:00,31.1,22.0,29.40,West,277,0.0,0.0,68,0.00,,,-99.99,HOBO +U30 +Weather +,2013-03-07 08:55:00,
2013-03-07 04:00:00,31.0,21.9,29.40,West,261,0.0,0.0,68,0.00,,,-99.99,HOBO +U30 +Weather +,2013-03-07 09:00:00,
2013-03-07 04:05:00,30.9,22.1,29.40,West,265,0.0,0.0,69,0.00,,,-99.99,HOBO +U30 +Weather +,2013-03-07 09:05:00,
2013-03-07 04:25:00,30.7,22.2,29.40,SSW,211,0.0,0.0,70,0.00,,,-99.99,HOBO +U30 +Weather +,2013-03-07 09:25:00,
2013-03-07 04:30:00,30.7,22.3,29.40,SW,215,0.0,0.0,70,0.00,,,-99.99,HOBO +U30 +Weather +,2013-03-07 09:30:00,
2013-03-07 04:35:00,30.8,22.3,29.40,SW,234,0.0,0.0,70,0.00,,,-99.99,HOBO +U30 +Weather +,2013-03-07 09:35:00,
2013-03-07 04:40:00,30.6,22.3,29.40,WSW,240,0.0,0.0,71,0.00,,,-99.99,HOBO +U30 +Weather +,2013-03-07 09:40:00,
2013-03-07 04:45:00,30.6,22.3,29.40,WSW,244,0.0,0.0,70,0.00,,,-99.99,HOBO +U30 +Weather +,2013-03-07 09:45:00,
2013-03-07 04:50:00,30.6,22.2,29.40,WSW,258,0.0,0.0,70,0.00,,,-99.99,HOBO +U30 +Weather +,2013-03-07 09:50:00,
2013-03-07 04:55:00,30.7,22.3,29.40,WSW,258,0.0,0.0,70,0.00,,,-99.99,HOBO +U30 +Weather +,2013-03-07 09:55:00,
2013-03-07 05:10:00,30.7,22.4,29.40,West,264,0.0,0.0,70,0.00,,,-99.99,HOBO +U30 +Weather +,2013-03-07 10:10:00,
2013-03-07 05:50:00,30.3,22.3,29.40,WSW,244,0.0,0.0,71,0.00,,,-99.99,HOBO +U30 +Weather +,2013-03-07 10:50:00,
2013-03-07 05:55:00,30.3,22.3,29.40,WSW,246,0.0,0.0,71,0.00,,,-99.99,HOBO +U30 +Weather +,2013-03-07 10:55:00,
2013-03-07 06:00:00,30.3,22.1,29.40,WSW,246,0.0,0.0,71,0.00,,,-99.99,HOBO +U30 +Weather +,2013-03-07 11:00:00,
2013-03-07 06:05:00,30.3,22.1,29.40,WSW,246,0.0,0.0,71,0.00,,,-99.99,HOBO +U30 +Weather +,2013-03-07 11:05:00,
2013-03-07 06:10:00,30.3,22.1,29.40,SW,222,0.0,0.0,71,0.00,,,-99.99,HOBO +U30 +Weather +,2013-03-07 11:10:00,
2013-03-07 06:15:00,30.2,22.2,29.40,SW,218,0.0,0.0,71,0.00,,,-99.99,HOBO +U30 +Weather +,2013-03-07 11:15:00,
2013-03-07 06:20:00,30.3,22.4,29.40,SW,218,0.0,0.0,72,0.00,,,-99.99,HOBO +U30 +Weather +,2013-03-07 11:20:00,
2013-03-07 06:25:00,30.3,22.1,29.40,WSW,237,0.0,0.0,71,0.00,,,-99.99,HOBO +U30 +Weather +,2013-03-07 11:25:00,
2013-03-07 06:30:00,30.3,22.2,29.40,WSW,246,0.0,0.0,71,0.00,,,-99.99,HOBO +U30 +Weather +,2013-03-07 11:30:00,
2013-03-07 06:35:00,30.3,22.3,29.40,WSW,246,0.0,0.0,71,0.00,,,-99.99,HOBO +U30 +Weather +,2013-03-07 11:35:00,
2013-03-07 06:40:00,30.4,22.3,29.40,WSW,246,0.0,0.0,71,0.00,,,-99.99,HOBO +U30 +Weather +,2013-03-07 11:40:00,
2013-03-07 06:45:00,30.4,22.3,29.40,WSW,253,0.0,0.0,71,0.00,,,-99.99,HOBO +U30 +Weather +,2013-03-07 11:45:00,
2013-03-07 06:50:00,30.5,22.3,29.40,West,274,0.0,0.0,71,0.00,,,-99.99,HOBO +U30 +Weather +,2013-03-07 11:50:00,
2013-03-07 06:55:00,30.6,22.3,29.40,West,275,0.0,0.0,71,0.00,,,-99.99,HOBO +U30 +Weather +,2013-03-07 11:55:00,
2013-03-07 07:00:00,30.6,22.3,29.41,WSW,258,0.0,0.0,70,0.00,,,-99.99,HOBO +U30 +Weather +,2013-03-07 12:00:00,
2013-03-07 07:05:00,30.7,22.2,29.40,WNW,282,0.0,0.0,70,0.00,,,-99.99,HOBO +U30 +Weather +,2013-03-07 12:05:00,
2013-03-07 07:10:00,30.7,22.3,29.40,West,279,0.0,0.0,70,0.00,,,-99.99,HOBO +U30 +Weather +,2013-03-07 12:10:00,
2013-03-07 07:15:00,30.8,22.3,29.41,West,279,0.0,0.0,70,0.00,,,-99.99,HOBO +U30 +Weather +,2013-03-07 12:15:00,
2013-03-07 07:20:00,30.9,22.4,29.40,SE,146,0.0,0.0,70,0.00,,,-99.99,HOBO +U30 +Weather +,2013-03-07 12:20:00,
2013-03-07 07:25:00,30.9,22.4,29.40,SW,218,0.0,0.0,70,0.00,,,-99.99,HOBO +U30 +Weather +,2013-03-07 12:25:00,
2013-03-07 07:30:00,31.2,22.5,29.40,WSW,251,0.0,0.0,69,0.00,,,-99.99,HOBO +U30 +Weather +,2013-03-07 12:30:00,
2013-03-07 07:35:00,31.2,22.4,29.40,WSW,241,0.0,0.0,69,0.00,,,-99.99,HOBO +U30 +Weather +,2013-03-07 12:35:00,
2013-03-07 07:40:00,31.5,22.6,29.40,WNW,288,0.0,0.0,69,0.00,,,-99.99,HOBO +U30 +Weather +,2013-03-07 12:40:00,
2013-03-07 07:45:00,31.7,22.8,29.40,NNE,14,0.0,0.0,69,0.00,,,-99.99,HOBO +U30 +Weather +,2013-03-07 12:45:00,
2013-03-07 07:50:00,31.7,22.5,29.40,ESE,110,0.0,0.0,68,0.00,,,-99.99,HOBO +U30 +Weather +,2013-03-07 12:50:00,
2013-03-07 07:55:00,31.7,22.5,29.40,NE,34,0.0,0.0,68,0.00,,,-99.99,HOBO +U30 +Weather +,2013-03-07 12:55:00,
2013-03-07 08:00:00,31.8,22.5,29.40,SSE,153,0.0,0.0,68,0.00,,,-99.99,HOBO +U30 +Weather +,2013-03-07 13:00:00,
2013-03-07 08:05:00,31.8,22.4,29.40,WSW,237,0.0,0.0,68,0.00,,,-99.99,HOBO +U30 +Weather +,2013-03-07 13:05:00,
2013-03-07 08:10:00,32.1,22.7,29.41,WSW,251,0.0,0.0,67,0.00,,,-99.99,HOBO +U30 +Weather +,2013-03-07 13:10:00,
2013-03-07 08:20:00,32.7,23.2,29.41,SW,216,0.0,0.0,67,0.00,,,-99.99,HOBO +U30 +Weather +,2013-03-07 13:20:00,
2013-03-07 08:25:00,32.9,23.0,29.41,WNW,295,0.0,0.0,66,0.00,,,-99.99,HOBO +U30 +Weather +,2013-03-07 13:25:00,
2013-03-07 08:30:00,32.8,22.9,29.41,WNW,295,0.0,0.0,66,0.00,,,-99.99,HOBO +U30 +Weather +,2013-03-07 13:30:00,
2013-03-07 08:35:00,32.7,22.8,29.40,NE,39,0.0,0.0,66,0.00,,,-99.99,HOBO +U30 +Weather +,2013-03-07 13:35:00,
2013-03-07 08:40:00,32.8,22.8,29.40,West,260,0.0,0.0,66,0.00,,,-99.99,HOBO +U30 +Weather +,2013-03-07 13:40:00,
2013-03-07 08:45:00,32.9,22.9,29.40,North,6,0.0,0.0,66,0.00,,,-99.99,HOBO +U30 +Weather +,2013-03-07 13:45:00,
2013-03-07 08:50:00,32.8,22.8,29.40,NNE,13,0.0,0.0,66,0.00,,,-99.99,HOBO +U30 +Weather +,2013-03-07 13:50:00,
2013-03-07 08:55:00,32.9,22.7,29.40,West,274,0.0,0.0,65,0.00,,,-99.99,HOBO +U30 +Weather +,2013-03-07 13:55:00,
2013-03-07 09:00:00,33.2,23.1,29.40,North,355,0.0,0.0,65,0.00,,,-99.99,HOBO +U30 +Weather +,2013-03-07 14:00:00,
2013-03-07 09:05:00,32.7,22.5,29.40,ESE,108,0.0,0.0,65,0.00,,,-99.99,HOBO +U30 +Weather +,2013-03-07 14:05:00,
2013-03-07 09:10:00,33.2,23.0,29.40,South,175,0.0,0.0,65,0.00,,,-99.99,HOBO +U30 +Weather +,2013-03-07 14:10:00,
2013-03-07 09:15:00,33.2,23.1,29.40,SE,125,0.0,0.0,66,0.00,,,-99.99,HOBO +U30 +Weather +,2013-03-07 14:15:00,
2013-03-07 09:25:00,33.8,23.3,29.39,SE,131,0.0,0.0,65,0.00,,,-99.99,HOBO +U30 +Weather +,2013-03-07 14:25:00,
2013-03-07 09:30:00,34.0,23.5,29.39,South,178,0.0,0.0,64,0.00,,,-99.99,HOBO +U30 +Weather +,2013-03-07 14:30:00,
2013-03-07 09:35:00,33.8,23.2,29.39,SE,131,0.0,0.0,64,0.00,,,-99.99,HOBO +U30 +Weather +,2013-03-07 14:35:00,
2013-03-07 09:45:00,34.4,23.7,29.39,WSW,247,0.0,0.0,64,0.00,,,-99.99,HOBO +U30 +Weather +,2013-03-07 14:45:00,
2013-03-07 09:50:00,35.0,24.0,29.39,WSW,240,0.0,0.0,63,0.00,,,-99.99,HOBO +U30 +Weather +,2013-03-07 14:50:00,
2013-03-07 09:55:00,34.8,23.8,29.39,WNW,292,0.0,0.0,63,0.00,,,-99.99,HOBO +U30 +Weather +,2013-03-07 14:55:00,
2013-03-07 10:00:00,35.1,24.0,29.39,NNW,330,0.0,0.0,63,0.00,,,-99.99,HOBO +U30 +Weather +,2013-03-07 15:00:00,
2013-03-07 10:05:00,35.2,23.8,29.38,NW,314,0.0,0.0,62,0.00,,,-99.99,HOBO +U30 +Weather +,2013-03-07 15:05:00,
2013-03-07 10:10:00,35.1,23.8,29.38,East,91,0.0,0.0,63,0.00,,,-99.99,HOBO +U30 +Weather +,2013-03-07 15:10:00,
2013-03-07 10:15:00,34.6,23.6,29.38,WSW,248,0.0,0.0,63,0.00,,,-99.99,HOBO +U30 +Weather +,2013-03-07 15:15:00,
2013-03-07 10:20:00,34.9,23.8,29.38,West,265,0.0,0.0,63,0.00,,,-99.99,HOBO +U30 +Weather +,2013-03-07 15:20:00,
2013-03-07 10:25:00,35.6,24.2,29.38,WNW,300,0.0,0.0,63,0.00,,,-99.99,HOBO +U30 +Weather +,2013-03-07 15:25:00,
2013-03-07 10:40:00,35.3,24.4,29.38,WSW,246,0.0,0.0,63,0.00,,,-99.99,HOBO +U30 +Weather +,2013-03-07 15:40:00,
2013-03-07 10:45:00,35.3,24.2,29.38,NNW,341,0.0,0.0,63,0.00,,,-99.99,HOBO +U30 +Weather +,2013-03-07 15:45:00,
2013-03-07 10:50:00,35.1,23.9,29.38,NNE,27,0.0,0.0,63,0.00,,,-99.99,HOBO +U30 +Weather +,2013-03-07 15:50:00,
2013-03-07 10:55:00,35.2,24.2,29.38,NE,45,0.0,0.0,63,0.00,,,-99.99,HOBO +U30 +Weather +,2013-03-07 15:55:00,
2013-03-07 11:00:00,35.2,24.2,29.38,SSW,194,0.0,0.0,63,0.00,,,-99.99,HOBO +U30 +Weather +,2013-03-07 16:00:00,
2013-03-07 11:05:00,36.0,24.9,29.39,NW,324,0.0,0.0,63,0.00,,,-99.99,HOBO +U30 +Weather +,2013-03-07 16:05:00,
2013-03-07 11:10:00,35.8,24.5,29.38,NNE,18,0.0,0.0,63,0.00,,,-99.99,HOBO +U30 +Weather +,2013-03-07 16:10:00,
2013-03-07 11:15:00,36.3,24.9,29.39,NE,41,0.0,0.0,62,0.00,,,-99.99,HOBO +U30 +Weather +,2013-03-07 16:15:00,
2013-03-07 11:40:00,35.7,24.2,29.39,SSW,212,0.0,0.0,62,0.00,,,-99.99,HOBO +U30 +Weather +,2013-03-07 16:40:00,
2013-03-07 11:45:00,35.8,24.4,29.38,WSW,257,0.0,0.0,62,0.00,,,-99.99,HOBO +U30 +Weather +,2013-03-07 16:45:00,
2013-03-07 11:50:00,36.3,24.9,29.38,WSW,256,0.0,0.0,62,0.00,,,-99.99,HOBO +U30 +Weather +,2013-03-07 16:50:00,
2013-03-07 11:55:00,36.4,24.9,29.38,NW,316,0.0,0.0,62,0.00,,,-99.99,HOBO +U30 +Weather +,2013-03-07 16:55:00,
2013-03-07 12:00:00,36.6,25.0,29.38,NNE,29,0.0,0.0,62,0.00,,,-99.99,HOBO +U30 +Weather +,2013-03-07 17:00:00,
2013-03-07 12:15:00,36.4,24.8,29.38,NNW,334,0.0,0.0,62,0.00,,,-99.99,HOBO +U30 +Weather +,2013-03-07 17:15:00,
2013-03-07 12:20:00,36.4,24.9,29.37,WSW,243,0.0,0.0,62,0.00,,,-99.99,HOBO +U30 +Weather +,2013-03-07 17:20:00,
2013-03-07 12:25:00,36.2,24.5,29.37,SW,230,0.0,0.0,62,0.00,,,-99.99,HOBO +U30 +Weather +,2013-03-07 17:25:00,
2013-03-07 12:30:00,36.6,25.1,29.37,NNW,327,0.0,0.0,62,0.00,,,-99.99,HOBO +U30 +Weather +,2013-03-07 17:30:00,
2013-03-07 12:45:00,37.6,25.6,29.36,NW,326,0.0,0.0,61,0.00,,,-99.99,HOBO +U30 +Weather +,2013-03-07 17:45:00,
2013-03-07 12:55:00,38.6,26.1,29.36,West,274,0.0,0.0,60,0.00,,,-99.99,HOBO +U30 +Weather +,2013-03-07 17:55:00,
2013-03-07 13:00:00,38.2,25.6,29.36,NNW,330,0.0,0.0,60,0.00,,,-99.99,HOBO +U30 +Weather +,2013-03-07 18:00:00,
2013-03-07 13:05:00,38.1,25.5,29.36,North,350,0.0,0.0,60,0.00,,,-99.99,HOBO +U30 +Weather +,2013-03-07 18:05:00,
2013-03-07 13:10:00,38.0,25.7,29.36,WNW,303,0.0,0.0,60,0.00,,,-99.99,HOBO +U30 +Weather +,2013-03-07 18:10:00,
2013-03-07 13:15:00,38.1,25.6,29.36,East,91,0.0,0.0,60,0.00,,,-99.99,HOBO +U30 +Weather +,2013-03-07 18:15:00,
2013-03-07 13:20:00,37.4,24.8,29.35,SW,230,0.0,0.0,60,0.00,,,-99.99,HOBO +U30 +Weather +,2013-03-07 18:20:00,
2013-03-07 13:30:00,37.7,25.4,29.35,WSW,257,0.0,0.0,60,0.00,,,-99.99,HOBO +U30 +Weather +,2013-03-07 18:30:00,
2013-03-07 13:35:00,38.2,25.8,29.35,SW,225,0.0,0.0,60,0.00,,,-99.99,HOBO +U30 +Weather +,2013-03-07 18:35:00,
2013-03-07 13:40:00,37.6,25.2,29.35,WSW,258,0.0,0.0,60,0.00,,,-99.99,HOBO +U30 +Weather +,2013-03-07 18:40:00,
2013-03-07 13:45:00,37.7,25.3,29.35,WSW,256,0.0,0.0,60,0.00,,,-99.99,HOBO +U30 +Weather +,2013-03-07 18:45:00,
2013-03-07 13:50:00,37.5,25.1,29.35,SW,225,0.0,0.0,60,0.00,,,-99.99,HOBO +U30 +Weather +,2013-03-07 18:50:00,
2013-03-07 13:55:00,37.7,25.4,29.35,WSW,248,0.0,0.0,60,0.00,,,-99.99,HOBO +U30 +Weather +,2013-03-07 18:55:00,
2013-03-07 14:00:00,37.8,25.4,29.35,SW,229,0.0,0.0,60,0.00,,,-99.99,HOBO +U30 +Weather +,2013-03-07 19:00:00,
2013-03-07 14:05:00,38.0,25.4,29.35,WSW,253,0.0,0.0,60,0.00,,,-99.99,HOBO +U30 +Weather +,2013-03-07 19:05:00,
2013-03-07 14:10:00,38.0,25.5,29.35,SSW,201,0.0,0.0,60,0.00,,,-99.99,HOBO +U30 +Weather +,2013-03-07 19:10:00,
2013-03-07 14:15:00,38.5,26.2,29.35,SSW,202,0.0,0.0,60,0.00,,,-99.99,HOBO +U30 +Weather +,2013-03-07 19:15:00,
2013-03-07 14:20:00,38.3,26.1,29.35,SW,219,0.0,0.0,61,0.00,,,-99.99,HOBO +U30 +Weather +,2013-03-07 19:20:00,
2013-03-07 14:25:00,37.8,25.3,29.35,West,274,0.0,0.0,60,0.00,,,-99.99,HOBO +U30 +Weather +,2013-03-07 19:25:00,
2013-03-07 14:50:00,37.6,25.2,29.35,SW,233,0.0,0.0,60,0.00,,,-99.99,HOBO +U30 +Weather +,2013-03-07 19:50:00,
2013-03-07 14:55:00,37.4,25.1,29.35,WSW,257,0.0,0.0,60,0.00,,,-99.99,HOBO +U30 +Weather +,2013-03-07 19:55:00,
2013-03-07 15:00:00,37.6,25.5,29.35,West,270,0.0,0.0,61,0.00,,,-99.99,HOBO +U30 +Weather +,2013-03-07 20:00:00,
2013-03-07 15:05:00,37.4,25.0,29.35,WSW,239,0.0,0.0,60,0.00,,,-99.99,HOBO +U30 +Weather +,2013-03-07 20:05:00,
2013-03-07 15:10:00,37.3,25.0,29.35,West,278,0.0,0.0,60,0.00,,,-99.99,HOBO +U30 +Weather +,2013-03-07 20:10:00,
2013-03-07 15:15:00,37.3,25.2,29.35,SSW,212,0.0,0.0,61,0.00,,,-99.99,HOBO +U30 +Weather +,2013-03-07 20:15:00,
2013-03-07 15:35:00,37.0,25.0,29.36,WSW,250,0.0,0.0,61,0.00,,,-99.99,HOBO +U30 +Weather +,2013-03-07 20:35:00,
2013-03-07 15:40:00,36.9,24.8,29.36,WSW,257,0.0,0.0,61,0.00,,,-99.99,HOBO +U30 +Weather +,2013-03-07 20:40:00,
2013-03-07 15:45:00,36.9,24.7,29.36,WSW,258,0.0,0.0,60,0.00,,,-99.99,HOBO +U30 +Weather +,2013-03-07 20:45:00,
2013-03-07 15:50:00,36.6,24.9,29.36,West,264,0.0,0.9,62,0.00,,,-99.99,HOBO +U30 +Weather +,2013-03-07 20:50:00,
2013-03-07 15:55:00,36.6,24.9,29.36,SW,227,0.0,0.0,62,0.00,,,-99.99,HOBO +U30 +Weather +,2013-03-07 20:55:00,
2013-03-07 16:00:00,36.4,25.1,29.36,WSW,247,0.0,0.0,63,0.00,,,-99.99,HOBO +U30 +Weather +,2013-03-07 21:00:00,
2013-03-07 16:05:00,36.1,25.1,29.37,SW,220,0.0,0.0,64,0.00,,,-99.99,HOBO +U30 +Weather +,2013-03-07 21:05:00,
2013-03-07 16:10:00,35.9,25.2,29.37,SW,232,2.5,9.6,64,0.00,,,-99.99,HOBO +U30 +Weather +,2013-03-07 21:10:00,
2013-03-07 16:15:00,35.8,25.4,29.37,WSW,251,1.3,7.2,65,0.00,,,-99.99,HOBO +U30 +Weather +,2013-03-07 21:15:00,
2013-03-07 16:20:00,35.8,25.6,29.37,West,277,0.0,0.0,66,0.00,,,-99.99,HOBO +U30 +Weather +,2013-03-07 21:20:00,
2013-03-07 16:40:00,34.2,26.5,29.38,NNE,18,0.0,0.0,73,0.00,,,-99.99,HOBO +U30 +Weather +,2013-03-07 21:40:00,
2013-03-07 16:45:00,33.9,26.7,29.38,East,87,0.0,0.0,74,0.00,,,-99.99,HOBO +U30 +Weather +,2013-03-07 21:45:00,
2013-03-07 16:50:00,33.7,26.7,29.38,West,264,0.0,0.0,75,0.00,,,-99.99,HOBO +U30 +Weather +,2013-03-07 21:50:00,
2013-03-07 16:55:00,33.4,27.0,29.38,SSW,211,0.0,0.0,77,0.00,,,-99.99,HOBO +U30 +Weather +,2013-03-07 21:55:00,
2013-03-07 17:00:00,33.2,27.0,29.38,WNW,282,0.0,0.0,77,0.00,,,-99.99,HOBO +U30 +Weather +,2013-03-07 22:00:00,
2013-03-07 17:05:00,33.0,27.0,29.38,WSW,240,0.0,0.0,78,0.00,,,-99.99,HOBO +U30 +Weather +,2013-03-07 22:05:00,
2013-03-07 17:10:00,32.7,27.0,29.38,WSW,247,0.0,0.0,79,0.00,,,-99.99,HOBO +U30 +Weather +,2013-03-07 22:10:00,
2013-03-07 17:15:00,32.6,27.1,29.39,WSW,258,0.0,0.0,79,0.00,,,-99.99,HOBO +U30 +Weather +,2013-03-07 22:15:00,
2013-03-07 17:20:00,32.5,27.0,29.39,WSW,256,0.0,0.0,80,0.00,,,-99.99,HOBO +U30 +Weather +,2013-03-07 22:20:00,
2013-03-07 17:25:00,32.3,27.0,29.39,WSW,246,0.0,0.0,80,0.00,,,-99.99,HOBO +U30 +Weather +,2013-03-07 22:25:00,
2013-03-07 17:35:00,32.1,27.0,29.39,SSW,199,0.0,0.0,81,0.00,,,-99.99,HOBO +U30 +Weather +,2013-03-07 22:35:00,
2013-03-07 17:40:00,32.1,26.9,29.39,SW,226,0.0,0.0,80,0.00,,,-99.99,HOBO +U30 +Weather +,2013-03-07 22:40:00,
2013-03-07 17:45:00,32.1,27.0,29.39,SSW,208,0.0,0.0,81,0.00,,,-99.99,HOBO +U30 +Weather +,2013-03-07 22:45:00,
2013-03-07 17:55:00,31.9,26.9,29.39,SW,232,0.0,0.0,81,0.00,,,-99.99,HOBO +U30 +Weather +,2013-03-07 22:55:00,
2013-03-07 18:00:00,31.8,26.8,29.39,SW,233,0.0,0.0,81,0.00,,,-99.99,HOBO +U30 +Weather +,2013-03-07 23:00:00,
2013-03-07 18:15:00,31.7,26.9,29.39,SSW,199,1.6,12.1,82,0.00,,,-99.99,HOBO +U30 +Weather +,2013-03-07 23:15:00,
2013-03-07 18:20:00,31.7,26.8,29.39,SSW,211,0.4,4.9,82,0.00,,,-99.99,HOBO +U30 +Weather +,2013-03-07 23:20:00,
2013-03-07 18:25:00,31.6,26.8,29.39,SW,219,0.0,3.4,82,0.00,,,-99.99,HOBO +U30 +Weather +,2013-03-07 23:25:00,
2013-03-07 18:30:00,31.6,26.9,29.39,SW,229,0.0,0.0,82,0.00,,,-99.99,HOBO +U30 +Weather +,2013-03-07 23:30:00,
2013-03-07 18:35:00,31.6,26.9,29.39,SW,230,0.0,0.0,82,0.00,,,-99.99,HOBO +U30 +Weather +,2013-03-07 23:35:00,
2013-03-07 18:40:00,31.6,26.9,29.39,SW,225,0.0,0.0,82,0.00,,,-99.99,HOBO +U30 +Weather +,2013-03-07 23:40:00,
2013-03-07 18:45:00,31.5,26.9,29.39,SW,227,0.0,0.0,82,0.00,,,-99.99,HOBO +U30 +Weather +,2013-03-07 23:45:00,
2013-03-07 18:50:00,31.4,26.8,29.39,West,265,0.0,0.0,82,0.00,,,-99.99,HOBO +U30 +Weather +,2013-03-07 23:50:00,
2013-03-07 18:55:00,31.5,26.8,29.39,West,270,0.0,0.0,82,0.00,,,-99.99,HOBO +U30 +Weather +,2013-03-07 23:55:00,
2013-03-07 19:00:00,31.6,26.8,29.39,WSW,247,0.0,0.0,82,0.00,,,-99.99,HOBO +U30 +Weather +,2013-03-08 00:00:00,
2013-03-07 19:05:00,31.6,26.8,29.39,SSW,201,0.0,0.0,82,0.00,,,-99.99,HOBO +U30 +Weather +,2013-03-08 00:05:00,
2013-03-07 19:10:00,31.7,26.8,29.39,SW,220,0.0,0.0,82,0.00,,,-99.99,HOBO +U30 +Weather +,2013-03-08 00:10:00,
2013-03-07 19:15:00,31.6,26.7,29.39,West,271,0.0,0.0,81,0.00,,,-99.99,HOBO +U30 +Weather +,2013-03-08 00:15:00,
2013-03-07 19:20:00,31.7,26.8,29.39,SW,219,0.0,0.0,81,0.00,,,-99.99,HOBO +U30 +Weather +,2013-03-08 00:20:00,
2013-03-07 19:25:00,31.7,26.7,29.39,SW,223,0.0,0.0,81,0.00,,,-99.99,HOBO +U30 +Weather +,2013-03-08 00:25:00,
2013-03-07 19:30:00,31.8,26.7,29.39,SW,216,0.0,0.0,81,0.00,,,-99.99,HOBO +U30 +Weather +,2013-03-08 00:30:00,
2013-03-07 19:35:00,31.8,26.6,29.39,SW,230,0.0,0.0,81,0.00,,,-99.99,HOBO +U30 +Weather +,2013-03-08 00:35:00,
2013-03-07 19:40:00,31.8,26.5,29.39,WSW,253,0.0,0.0,80,0.00,,,-99.99,HOBO +U30 +Weather +,2013-03-08 00:40:00,
2013-03-07 19:45:00,31.9,26.5,29.39,SSW,205,0.0,0.0,80,0.00,,,-99.99,HOBO +U30 +Weather +,2013-03-08 00:45:00,
2013-03-07 19:50:00,31.8,26.5,29.39,SW,225,0.0,0.0,80,0.00,,,-99.99,HOBO +U30 +Weather +,2013-03-08 00:50:00,
2013-03-07 19:55:00,31.8,26.3,29.39,WSW,248,0.0,0.0,80,0.00,,,-99.99,HOBO +U30 +Weather +,2013-03-08 00:55:00,
2013-03-07 20:00:00,31.8,26.3,29.38,SW,229,0.0,0.0,79,0.00,,,-99.99,HOBO +U30 +Weather +,2013-03-08 01:00:00,
2013-03-07 20:05:00,31.8,26.2,29.38,WSW,240,0.0,0.0,79,0.00,,,-99.99,HOBO +U30 +Weather +,2013-03-08 01:05:00,
2013-03-07 20:10:00,31.8,26.1,29.38,SSW,208,0.0,0.0,79,0.00,,,-99.99,HOBO +U30 +Weather +,2013-03-08 01:10:00,
2013-03-07 20:15:00,31.8,26.1,29.39,WSW,244,0.0,0.0,79,0.00,,,-99.99,HOBO +U30 +Weather +,2013-03-08 01:15:00,
2013-03-07 20:20:00,31.8,26.0,29.38,SW,225,0.0,0.4,79,0.00,,,-99.99,HOBO +U30 +Weather +,2013-03-08 01:20:00,
2013-03-07 20:25:00,31.8,26.0,29.38,SSW,197,0.0,0.0,79,0.00,,,-99.99,HOBO +U30 +Weather +,2013-03-08 01:25:00,
2013-03-07 20:30:00,31.8,26.0,29.38,SW,219,0.0,0.0,78,0.00,,,-99.99,HOBO +U30 +Weather +,2013-03-08 01:30:00,
2013-03-07 20:35:00,31.7,25.9,29.38,South,183,0.0,0.0,78,0.00,,,-99.99,HOBO +U30 +Weather +,2013-03-08 01:35:00,
2013-03-07 20:40:00,31.7,25.8,29.38,WSW,240,0.0,0.0,78,0.00,,,-99.99,HOBO +U30 +Weather +,2013-03-08 01:40:00,
2013-03-07 20:45:00,31.7,25.8,29.38,SW,234,0.0,0.0,78,0.00,,,-99.99,HOBO +U30 +Weather +,2013-03-08 01:45:00,
2013-03-07 20:50:00,31.6,25.7,29.38,SW,216,0.0,0.0,78,0.00,,,-99.99,HOBO +U30 +Weather +,2013-03-08 01:50:00,
2013-03-07 20:55:00,31.6,25.6,29.37,SSW,213,0.0,0.0,78,0.00,,,-99.99,HOBO +U30 +Weather +,2013-03-08 01:55:00,
2013-03-07 21:00:00,31.5,25.5,29.37,SW,225,0.0,0.0,78,0.00,,,-99.99,HOBO +U30 +Weather +,2013-03-08 02:00:00,
2013-03-07 21:05:00,31.5,25.4,29.37,SW,230,0.0,0.0,77,0.00,,,-99.99,HOBO +U30 +Weather +,2013-03-08 02:05:00,
2013-03-07 21:10:00,31.5,25.3,29.37,WSW,244,0.0,0.0,77,0.00,,,-99.99,HOBO +U30 +Weather +,2013-03-08 02:10:00,
2013-03-07 21:15:00,31.5,25.2,29.36,WSW,251,0.0,0.0,77,0.00,,,-99.99,HOBO +U30 +Weather +,2013-03-08 02:15:00,
2013-03-07 21:20:00,31.5,25.1,29.36,SW,223,0.0,0.0,76,0.00,,,-99.99,HOBO +U30 +Weather +,2013-03-08 02:20:00,
2013-03-07 21:25:00,31.4,25.1,29.36,SW,232,0.0,0.0,77,0.00,,,-99.99,HOBO +U30 +Weather +,2013-03-08 02:25:00,
2013-03-07 21:30:00,31.4,24.9,29.36,SW,216,1.3,11.2,76,0.00,,,-99.99,HOBO +U30 +Weather +,2013-03-08 02:30:00,
2013-03-07 21:35:00,31.3,24.8,29.36,SW,233,2.0,10.7,76,0.00,,,-99.99,HOBO +U30 +Weather +,2013-03-08 02:35:00,
2013-03-07 21:40:00,31.1,24.8,29.35,WSW,244,0.0,0.4,77,0.00,,,-99.99,HOBO +U30 +Weather +,2013-03-08 02:40:00,
2013-03-07 21:45:00,31.1,24.9,29.36,SW,218,0.0,0.0,77,0.00,,,-99.99,HOBO +U30 +Weather +,2013-03-08 02:45:00,
2013-03-07 21:50:00,31.2,24.9,29.36,SW,233,0.0,0.0,76,0.00,,,-99.99,HOBO +U30 +Weather +,2013-03-08 02:50:00,
2013-03-07 21:55:00,31.1,24.7,29.36,West,279,0.0,0.0,77,0.00,,,-99.99,HOBO +U30 +Weather +,2013-03-08 02:55:00,
2013-03-07 22:00:00,31.1,24.9,29.36,SW,225,0.0,0.0,77,0.00,,,-99.99,HOBO +U30 +Weather +,2013-03-08 03:00:00,
2013-03-07 22:05:00,31.3,24.9,29.36,SW,230,0.0,0.0,76,0.00,,,-99.99,HOBO +U30 +Weather +,2013-03-08 03:05:00,
2013-03-07 22:10:00,31.3,24.5,29.35,SW,226,0.0,0.0,75,0.00,,,-99.99,HOBO +U30 +Weather +,2013-03-08 03:10:00,
2013-03-07 22:15:00,31.2,24.5,29.35,SW,220,0.0,0.0,75,0.00,,,-99.99,HOBO +U30 +Weather +,2013-03-08 03:15:00,
2013-03-07 22:20:00,31.1,24.4,29.35,SW,229,0.0,0.0,76,0.00,,,-99.99,HOBO +U30 +Weather +,2013-03-08 03:20:00,
2013-03-07 22:25:00,30.9,24.4,29.35,WSW,239,0.0,0.0,76,0.00,,,-99.99,HOBO +U30 +Weather +,2013-03-08 03:25:00,
2013-03-07 22:30:00,30.7,24.4,29.35,SW,233,0.0,0.0,77,0.00,,,-99.99,HOBO +U30 +Weather +,2013-03-08 03:30:00,
2013-03-07 22:35:00,30.4,24.6,29.35,SSW,211,0.0,0.0,78,0.00,,,-99.99,HOBO +U30 +Weather +,2013-03-08 03:35:00,
2013-03-07 22:40:00,30.1,24.7,29.35,WSW,251,0.0,0.0,80,0.00,,,-99.99,HOBO +U30 +Weather +,2013-03-08 03:40:00,
2013-03-07 22:50:00,29.8,24.9,29.35,SSW,202,0.0,0.0,81,0.00,,,-99.99,HOBO +U30 +Weather +,2013-03-08 03:50:00,
2013-03-07 23:00:00,29.6,25.0,29.35,SW,234,0.0,0.0,82,0.00,,,-99.99,HOBO +U30 +Weather +,2013-03-08 04:00:00,
2013-03-07 23:05:00,29.6,25.0,29.35,WSW,239,0.0,0.0,82,0.00,,,-99.99,HOBO +U30 +Weather +,2013-03-08 04:05:00,
2013-03-07 23:15:00,29.4,25.0,29.36,WSW,244,0.0,0.0,83,0.00,,,-99.99,HOBO +U30 +Weather +,2013-03-08 04:15:00,
2013-03-07 23:20:00,29.4,25.0,29.35,SW,220,0.0,0.0,83,0.00,,,-99.99,HOBO +U30 +Weather +,2013-03-08 04:20:00,
2013-03-07 23:25:00,29.4,25.1,29.36,SW,225,0.0,0.0,83,0.00,,,-99.99,HOBO +U30 +Weather +,2013-03-08 04:25:00,
2013-03-07 23:35:00,29.2,25.1,29.36,SW,225,0.0,0.0,84,0.00,,,-99.99,HOBO +U30 +Weather +,2013-03-08 04:35:00,
2013-03-07 23:40:00,29.0,25.1,29.36,West,260,0.0,0.0,85,0.00,,,-99.99,HOBO +U30 +Weather +,2013-03-08 04:40:00,
2013-03-07 23:45:00,29.0,25.2,29.36,SE,143,0.0,0.0,85,0.00,,,-99.99,HOBO +U30 +Weather +,2013-03-08 04:45:00,
2013-03-07 23:50:00,28.8,25.2,29.36,SSE,168,0.0,0.0,86,0.00,,,-99.99,HOBO +U30 +Weather +,2013-03-08 04:50:00,